Find NetSat 1

NORAD ID: 46506 Int'l Des: 2020-068 Owner: ZFT Country: D operational
LEOCIRCULARRETROGRADE

实时位置

正在加载3D地球...

关于 NetSat 1

正在加载描述...

即将过境

Passes for default location (London). Set your location on the main map for personalized predictions.

高度历史

Loading altitude history...

两行轨道根数

1 46506U 20068W 26106.22605224 .00006534 00000-0 20670-3 0 9991
2 46506 97.8753 102.9221 0004063 200.9343 159.1733 15.33151730305807
Epoch: Apr 16, 2026 • Age: 12 hours

当前状态

高度 473.4 km
速度 7.63 km/s
星下点 -8.07°S, 9.11°W
发射日期 Sep 28, 2020
运行时间 5.5 years
类型 other

技术详情

分类 Payload
质量 4.00 kg
干质量 4.00 kg
总质量 4.00 kg
长度 0.30 m
直径 0.10 m
跨度 0.30 m
形状 Box
制造商 ZFT
平台类型 Cubesat 3U
阶段状态 In Orbit
所有者/国家 ZFT/D

Most Searched